This demonstration page uses our WeatherBlox Daily Observations layout. Learn more.

Left ArrowRight Arrow

40.92501, -98.34201

Hourly Observations for July 19, 2021

Temp ( °F °C ) Dew Point ( °F °C ) Humidity (%) Winds ( mph kmh ) Pressure ( in mb ) Visibility ( mi km ) Precip ( " mm )
12:53 am 00:53 Clear 68 20 63 17.2 84 84 SSE 5 7 30.21 1023 8 13 0.00 0.00
1:53 am 01:53 Clear 66 18.9 62 16.7 87 87 ESE 5 7 30.20 1023 8 13 0.00 0.00
2:53 am 02:53 Clear 65 18.3 61 16.1 87 87 Calm 30.20 1023 7 11 0.00 0.00
3:53 am 03:53 Clear 65 18.3 60 15.6 84 84 Calm 30.21 1023 7 11 0.00 0.00
4:53 am 04:53 Clear 63 17.2 60 15.6 90 90 Calm 30.22 1023 7 11 0.00 0.00
5:53 am 05:53 Clear with Mist and Fog 62 16.7 59 15 90 90 E 3 6 30.21 1023 4 6 0.00 0.00
6:32 am 06:32 Sunny with Mist and Fog 62 16.7 59 15 90 90 Calm 30.20 1023 2 3 0.00 0.00
6:43 am 06:43 Sunny with Mist and Fog 62 16.7 59 15 90 90 Calm 30.20 1023 2 2 0.00 0.00
6:53 am 06:53 Sunny with Mist and Fog 62 16.7 60 15.6 93 93 Calm 30.22 1023 2 3 0.00 0.00
7:53 am 07:53 Sunny with Mist and Fog 66 18.9 63 17.2 90 90 Calm 30.22 1023 2 3 0.00 0.00
8:00 am 08:00 Sunny with Mist and Fog 67 19.4 63 17.2 87 87 Calm 30.19 1022 3 5 0.00 0.00
8:53 am 08:53 Sunny 71 21.7 64 17.8 79 79 SSE 5 7 30.23 1024 7 11 0.00 0.00
9:53 am 09:53 Mostly Sunny 75 23.9 63 17.2 66 66 SSE 6 9 30.23 1024 10 16 0.00 0.00
10:53 am 10:53 Sunny 77 25 63 17.2 62 62 SE 7 11 30.22 1023 10 16 0.00 0.00
11:53 am 11:53 Mostly Sunny 79 26.1 62 16.7 56 56 VRB 6 9 30.22 1024 10 16 0.00 0.00
12:53 pm 12:53 Mostly Sunny 80 26.7 62 16.7 54 54 ESE 6 9 30.22 1023 10 16 0.00 0.00
1:53 pm 13:53 Mostly Sunny 81 27.2 63 17.2 54 54 ESE 6 9 30.21 1023 10 16 0.00 0.00
2:53 pm 14:53 Mostly Sunny 82 27.8 62 16.7 51 51 E 6 9 30.20 1023 10 16 0.00 0.00
3:53 pm 15:53 Mostly Sunny 83 28.3 60 15.6 46 46 ESE 9 15 30.19 1022 10 16 0.00 0.00
4:53 pm 16:53 Mostly Sunny 83 28.3 61 16.1 48 48 SE 6 9 30.19 1022 10 16 0.00 0.00
5:53 pm 17:53 Sunny 82 27.8 59 15 46 46 ESE 7 11 30.18 1022 10 16 0.00 0.00
6:53 pm 18:53 Sunny 81 27.2 60 15.6 49 49 SE 6 9 30.19 1022 10 16 0.00 0.00
7:53 pm 19:53 Sunny 79 26.1 62 16.7 56 56 ESE 3 6 30.19 1022 10 16 0.00 0.00
8:53 pm 20:53 Sunny 74 23.3 63 17.2 69 69 ESE 3 6 30.19 1022 10 16 0.00 0.00
9:53 pm 21:53 Clear 72 22.2 62 16.7 71 71 Calm 30.19 1022 10 16 0.00 0.00
10:53 pm 22:53 Clear 67 19.4 62 16.7 84 84 Calm 30.19 1022 8 13 0.00 0.00
11:53 pm 23:53 Clear 67 19.4 61 16.1 81 81 SSE 3 6 30.18 1022 7 11 0.00 0.00

Powered by AerisWeather